Home > Weather > Swakopmund > Past weeks

Flag for Namibia Past Weather in Swakopmund, Namibia — Yesterday and Last 2 Weeks

Now
48 °F

Low clouds.


Feels Like: 48 °F
Forecast: 53 / 65 °F
Wind: 2 mph from East

Location: Walvis Bay

Current Time: Jul 30, 2016 at 8:23:29 AM

Latest Report: Jul 30, 2016 at 7:00 AM


Visibility: N/A

Pressure: 30.12 "Hg

Humidity: 87%

Dew Point: 45 °F

Location of SwakopmundLocation

Past Weather in Swakopmund — Graph

°F

Swakopmund Temperature Yesterday

Maximum temperature yesterday: 61 °F (at 3:00 PM)
Minimum temperature yesterday: 48 °F (at 2:00 AM)
Average temperature yesterday: 52 °F

High & Low Weather Summary for the Past Weeks

 TemperatureHumidityPressure
High90 °F (Jul 18, 1:00 PM)100% (Jul 21, 7:00 AM)30.18 "Hg (Jul 21, 7:00 AM)
Low36 °F (Jul 26, 7:00 AM)11% (Jul 19, 10:00 AM)30.01 "Hg (Jul 15, 3:00 PM)
Average58 °F59%30.08 "Hg
* Reported Jul 15 8:00 AM — Jul 30 7:00 AM, Swakopmund, Weather by CustomWeather, © 2016

Note: Actual official high and low records may vary slightly from our data, if they occured in-between our weather recording intervals... More about our weather records

Advertising

Swakopmund Weather History for the Previous 24 Hours

Scroll right to see more
 ConditionsComfort  
Time TempWeatherWind HumidityBarometerVisibility
7:00 AM
Sat, Jul 30
48 °FLow clouds.2 mph87%30.12 "HgN/A
6:00 AM48 °FCool.1 mph87%30.09 "HgN/A
5:00 AM48 °FCool.3 mph87%30.07 "HgN/A
4:00 AM50 °FCool.1 mph82%30.07 "HgN/A
3:00 AM50 °FCool.3 mph82%30.09 "HgN/A
2:00 AM50 °FCool.1 mph88%30.09 "HgN/A
1:00 AM50 °FCool.1 mph88%30.09 "HgN/A
12:00 AM50 °FCool.1 mph88%30.12 "HgN/A
11:00 PM
Fri, Jul 29
52 °FCool.5 mph82%30.12 "HgN/A
10:00 PM52 °FCool.5 mph82%30.12 "HgN/A
9:00 PM52 °FCool.6 mph82%30.12 "HgN/A
7:00 PM52 °FCool.8 mph82%30.09 "HgN/A
6:00 PM52 °FCool.8 mph82%30.07 "HgN/A
5:00 PM55 °FCool.9 mph72%30.04 "HgN/A
4:00 PM57 °FCool.8 mph67%30.04 "HgN/A
3:00 PM61 °FRefreshingly cool.6 mph59%30.04 "HgN/A
2:00 PM59 °FRefreshingly cool.6 mph59%30.07 "HgN/A
1:00 PM57 °FPassing clouds.5 mph67%30.09 "HgN/A
12:00 PM57 °FPartly sunny.8 mph67%30.12 "HgN/A
11:00 AM54 °FPartly sunny.8 mph77%30.12 "HgN/A
9:00 AM50 °FLow clouds.9 mph94%30.15 "HgN/A
8:00 AM50 °FLow clouds.8 mph88%30.12 "HgN/A
Weather by CustomWeather, © 2016

See weather overviewHow to use our weather pages